Location: Musselshell
(46.5176°N, 108.0911°W)
Time: 13:21:21
(UTC+00:00)

AO-91 - Pass Details

Date: 03 July 2022
Orbit: 450 x 796 km, 97.7° (Epoch: 17 August)

Event Time Altitude Azimuth Distance (km) Brightness Sun altitude
Rises 06:20:59 0° 9° (N) 2,515 ? -19.4°
Reaches altitude 10° 06:23:04 10° 5° (N) 1,612 ? -19.5°
Maximum altitude 06:26:25 56° 287° (WNW) 546 ? -19.6°
Enters shadow 06:27:06 45° 241° (WSW) 625 ? -19.6°
